This is the latest recevied weather packets stored in our database for station/object N8WJW. If no packets are shown the sender has not sent any weather packets the latest 10 day(s).
| Time | Temp. | Humidity | Pressure | Rain* | Wind** | Luminosity | Snow |
|---|---|---|---|---|---|---|---|
| 1777896553 | 11.11° C | 65% | 1009.9 hPa | 0 mm | - | 40 W/m² | - |
| 1777896250 | 11.11° C | 67% | 1009.6 hPa | 0 mm | - | 49 W/m² | - |
| 1777895948 | 11.11° C | 66% | 1009.7 hPa | 0 mm | - | 38 W/m² | - |
| 1777895645 | 10.56° C | 67% | 1009.5 hPa | 0 mm | - | 39 W/m² | - |
| 1777895343 | 10.56° C | 68% | 1009.4 hPa | 0 mm | - | 35 W/m² | - |
| 1777895041 | 10.56° C | 68% | 1009.6 hPa | 0 mm | - | 34 W/m² | - |
| 1777894737 | 10.56° C | 67% | 1009.7 hPa | 0 mm | - | 33 W/m² | - |
| 1777894434 | 10.56° C | 67% | 1009.6 hPa | 0 mm | - | 32 W/m² | - |
| 1777894132 | 10° C | 68% | 1009.6 hPa | 0 mm | - | 30 W/m² | - |
| 1777893828 | 10° C | 68% | 1009.6 hPa | 0 mm | - | 28 W/m² | - |
| 1777893525 | 10° C | 68% | 1009.6 hPa | 0 mm | - | 27 W/m² | - |
| 1777893221 | 10° C | 69% | 1009.5 hPa | 0 mm | - | 25 W/m² | - |
| 1777892918 | 10° C | 69% | 1009.4 hPa | 0 mm | - | 23 W/m² | - |
| 1777892614 | 9.44° C | 69% | 1009.4 hPa | 0 mm | - | 21 W/m² | - |
| 1777892310 | 9.44° C | 69% | 1009.6 hPa | 0 mm | - | 18 W/m² | - |
| 1777892006 | 9.44° C | 69% | 1009.4 hPa | 0 mm | - | 16 W/m² | - |
| 1777891704 | 9.44° C | 68% | 1009.5 hPa | 0 mm | - | 14 W/m² | - |
| 1777891400 | 9.44° C | 69% | 1009.4 hPa | 0 mm | - | 11 W/m² | - |
| 1777891096 | 9.44° C | 69% | 1009.3 hPa | 0 mm | - | 9 W/m² | - |
| 1777890790 | 9.44° C | 69% | 1009.3 hPa | 0 mm | - | 6 W/m² | - |
| 1777890487 | 9.44° C | 69% | 1009.4 hPa | 0 mm | - | 5 W/m² | - |
| 1777890183 | 9.44° C | 68% | 1009.4 hPa | 0 mm | - | 3 W/m² | - |
| 1777889879 | 9.44° C | 68% | 1009.3 hPa | 0 mm | - | 2 W/m² | - |
| 1777889577 | 9.44° C | 68% | 1009.2 hPa | 0 mm | - | 1 W/m² | - |
| 1777889274 | 9.44° C | 67% | 1009.4 hPa | 0 mm | - | 0 W/m² | - |
* Rain latest hour (hover to see other rain measurements)
** Current wind speed in m/s (hover to see current wind gust speed)